Location: C�mpuri de-Sus
(45.9500°N, 22.5500°E)
Time: 06:08:57
(UTC+00:00)

Okean 1 Rocket - Pass Details

Date: 24 October 2021
Orbit: 607 x 633 km, 82.5° (Epoch: 04 December)

Event Time Altitude Azimuth Distance (km) Brightness Sun altitude
Rises 16:01:47 0° 205° (SSW) 2,855 7.0 -6.5°
Reaches altitude 10° 16:04:05 10° 212° (SSW) 1,957 6.3 -6.9°
Maximum altitude 16:08:12 42° 284° (WNW) 875 4.5 -7.6°
Drops below altitude 10° 16:12:23 10° 356° (N) 1,983 5.6 -8.3°
Sets 16:14:43 0° 3° (N) 2,897 6.4 -8.7°
